Home   Weather   Königs Wusterhausen   Past weeks

Flag for Germany Past Weather in Königs Wusterhausen, Brandenburg, Germany — Yesterday and Last 2 Weeks

Now
28 °F

Partly sunny.


Feels Like: 22 °F
Forecast: 21 / 31 °F
Wind: 6 mph from Southwest

Location: Berlin-Schoenefeld

Current Time: Jan 19, 2017 at 4:10:41 pm

Latest Report: Jan 19, 2017 at 3:50 pm


Visibility: N/A

Pressure: 30.66 "Hg

Humidity: 80%

Dew Point: 23 °F

Location of Königs WusterhausenLocation

Past Weather in Königs Wusterhausen — Graph

°F

Königs Wusterhausen Temperature Yesterday

Maximum temperature yesterday: 27 °F (at 1:50 pm)
Minimum temperature yesterday: 19 °F (at 12:20 am)
Average temperature yesterday: 24 °F

High & Low Weather Summary for the Past Weeks

 TemperatureHumidityPressure
High39 °F (Jan 12, 11:20 am)100% (Jan 4, 2:20 pm)30.77 "Hg (Jan 4, 2:20 pm)
Low10 °F (Jan 7, 1:20 am)54% (Jan 5, 2:50 pm)29.03 "Hg (Jan 13, 6:50 am)
Average28 °F87%30.13 "Hg
* Reported Jan 4 2:20 pm — Jan 19 2:50 pm, Königs Wusterhausen, Weather by CustomWeather, © 2017

Note: Actual official high and low records may vary slightly from our data, if they occured in-between our weather recording intervals... More about our weather records

Advertising

Königs Wusterhausen Weather History for the Previous 24 Hours

Scroll right to see more
 ConditionsComfort  
Time TempWeatherWind HumidityBarometerVisibility
2:50 pm
Thu, Jan 19
28 °FPartly sunny.6 mph80%30.66 "HgN/A
2:20 pm28 °FPartly sunny.5 mph80%30.66 "HgN/A
1:50 pm27 °FSunny.6 mph86%30.66 "Hg10 mi
1:20 pm27 °FSunny.7 mph86%30.66 "Hg10 mi
12:50 pm27 °FSunny.7 mph86%30.69 "Hg10 mi
12:20 pm27 °FPartly sunny.5 mph86%30.69 "HgN/A
11:50 am27 °FPartly sunny.5 mph86%30.69 "HgN/A
11:20 am25 °FPartly sunny.6 mph93%30.69 "HgN/A
10:50 am25 °FPartly sunny.7 mph86%30.69 "HgN/A
10:20 am25 °FBroken clouds.8 mph86%30.69 "Hg6 mi
9:50 am25 °FBroken clouds.7 mph86%30.69 "Hg6 mi
9:20 am25 °FPartly sunny.7 mph86%30.69 "Hg5 mi
8:50 am23 °FPartly sunny.7 mph93%30.69 "Hg5 mi
8:20 am23 °FPartly sunny.3 mph93%30.69 "Hg5 mi
7:50 am23 °FPassing clouds.5 mph93%30.69 "Hg5 mi
7:20 am23 °FLight snow. Passing clouds.7 mph93%30.69 "Hg5 mi
6:50 am23 °FPassing clouds.7 mph93%30.69 "HgN/A
6:20 am23 °FPassing clouds.7 mph93%30.69 "HgN/A
5:50 am23 °FPassing clouds.6 mph93%30.69 "HgN/A
5:20 am23 °FPassing clouds.5 mph93%30.69 "HgN/A
4:50 am23 °FPassing clouds.5 mph93%30.69 "HgN/A
4:20 am23 °FPassing clouds.7 mph93%30.72 "HgN/A
3:50 am25 °FPassing clouds.7 mph86%30.72 "HgN/A
3:20 am25 °FPassing clouds.6 mph93%30.72 "HgN/A
2:50 am25 °FPassing clouds.6 mph93%30.72 "HgN/A
2:20 am25 °FPassing clouds.6 mph86%30.72 "HgN/A
1:50 am25 °FPassing clouds.5 mph93%30.72 "HgN/A
1:20 am25 °FPassing clouds.3 mph93%30.72 "HgN/A
12:50 am23 °FPassing clouds.3 mph93%30.72 "HgN/A
12:20 am23 °FPassing clouds.3 mph93%30.72 "HgN/A
11:50 pm
Wed, Jan 18
23 °FPassing clouds.2 mph93%30.72 "HgN/A
11:20 pm23 °FPassing clouds.5 mph93%30.72 "HgN/A
10:50 pm23 °FPassing clouds.5 mph93%30.72 "HgN/A
10:20 pm25 °FPassing clouds.3 mph93%30.72 "HgN/A
9:50 pm25 °FPassing clouds.6 mph93%30.72 "HgN/A
9:20 pm25 °FLow clouds.5 mph93%30.72 "HgN/A
8:50 pm25 °FLow clouds.5 mph93%30.74 "HgN/A
8:20 pm25 °FLow clouds.7 mph93%30.74 "HgN/A
7:50 pm25 °FLow clouds.5 mph93%30.74 "HgN/A
7:20 pm25 °FLow clouds.3 mph93%30.74 "HgN/A
6:50 pm25 °FLow clouds.5 mph93%30.74 "Hg4 mi
6:20 pm25 °FIce fog.5 mph93%30.74 "Hg3 mi
5:50 pm25 °FIce fog.6 mph93%30.74 "Hg3 mi
5:20 pm25 °FIce fog.6 mph100%30.74 "Hg3 mi
4:50 pm25 °FIce fog.5 mph100%30.74 "Hg3 mi
4:20 pm25 °FIce fog.3 mph100%30.74 "Hg3 mi
Weather by CustomWeather, © 2017

See weather overviewHow to use our weather pages